Rbgn^[z[y[W
メイン
   新天体発見情報
     Comet C/2024 S1 (ATLAS)
投稿するにはまず登録を

スレッド表示 | 古いものから 前のトピック | 次のトピック | 下へ
投稿者 スレッド
佐藤裕久
投稿日時: 2024-10-3 23:40
モデレータ
登録日: 2005-6-12
居住地: 日本
投稿: 2687
オンライン
Comet C/2024 S1 (ATLAS)

L. Denneauの通報によると、Robert Siverd (この天体が伸びていることを指摘)は、9月27.6日UT、ハワイ
Haleakalaにある小惑星地球衝突最終警報システム Asteroid Terrestrial-impact Last Alert System 
(ATLAS)調査プログラムのコースに0.5-m Schmidt 反射望遠鏡で得たCCD画像から彗星を発見した。
Siverd の測定では、4".9シーイングで6".3(半値全幅:FWHM)の核集光し30"伸びたコマがあるが尾はない。
小惑星センターのPCCP webpageに公表後、S. Deen (Simi Valley, カリフォルニア州, 米国: 9月28.3日UT, 
3枚の300秒画像, 0.43-m f/6.8 CDK反射望遠鏡. チリ Rio Hurtado,遠隔操作:約5"(FWHM)のやや拡散した
コマが見え、p.a. 257°に約15"の尾がある)、佐藤英貴氏(東京都文京区, 9月28.4日、60-秒CMOS露出8枚の
スタック, "Deep Sky Chile" 0.25-m f/3.8 アストログラフ, Rio Hurtado, チリ, 遠隔操作: 強く集光した
2'.0の外側のコマが見え、p.a. 260°に向かって45"の尾がある。60".2の円形範囲測定した光度は13.5等で
あった)、吉本勝巳氏(山口県熊毛郡平生町, 9月29.36日、15-秒CCD露出20枚のスタック, 0.51-m f/6.8 
Corrected Dall-Kirkham望遠鏡, Rio Hurtado, チリ: 拡散した1'.6のコマが見え、 p.a. 265°に30"の
かすかな尾が見える。全光度は13.4等)や佐藤裕久(福島県須賀川市. 9月30.8日, 60-秒CCD露出14枚のスタック
0.25-m f/4 反射望遠鏡, 中程度に集光し淡く広がった0'.9のコマが見えるが尾はない)ら位置観測者によって
彗星状と観測された。

彗星機能の報告は次のとおり、

OC   Date        Reporter           Coma    Tail    PA          Exposures
X09  2024-09-28  S. Deen           30"       10"    257
X07  2024-09-28  H. Sato          120"       45"    260            8x60s
247  2024-09-28  E. Guido          30"                            15x30s
Q62  2024-09-28  F. D. Romanov     30"                            20x30s
M21  2024-09-29  A. Aletti         12"       20"    265           30x30s
M50  2024-09-29  G. Masi           20"
D49  2024-09-29  J. Camarasa        1".7
X07  2024-09-29  K. Yoshimoto      96"       30"    265           20x15s
V21  2024-09-29  D. T. Durig       20"       20"    260           20x30s
X07  2024-09-29  T. Prystavski    174"      156"    265            7x40s
Q23  2024-09-30  H. Sato           54"
Q62  2024-09-30  N. Paul          120"      103"    261            6x60s
X91  2024-10-01  C. Jacques        15"       30"    260           34x30s
V21  2024-09-29  D. T. Durig       45"       20"    250-270

発見位置は次のとおり、

     2024 UT             R.A. (2000) Decl.       Mag.
     Sept.27.61651    9 05 19.74   -11 39 21.5   15.3
          27.62061    9 05 20.74   -11 39 26.1   15.2
          27.62977    9 05 22.96   -11 39 36.1   15.3

MPCの双曲線軌道要素、位置推算表は次のとおり、

Orbital elements:
    C/2024 S1 (ATLAS)                                                           
Epoch 2024 Oct. 17.0 TT = JDT 2460600.5                                         
T 2024 Oct. 28.45981 TT                                 Rudenko                 
q   0.0083130            (2000.0)            P               Q                  
z  -0.0075234      Peri.   68.81055     +0.18872878     -0.97233155             
 +/-0.3144432      Node   347.11231     -0.95898405     -0.15228787             
e   1.0000625      Incl.  141.88528     +0.21149714     +0.17714334             
From 126 observations 2024 Sept. 27-Oct. 1, mean residual 0".8.                 
                                                                                
Ephemeris:
Date    TT    R. A. (2000) Decl.     Delta      r    Elong.  Phase   m1
2024 09 01    07 51 45.2 -06 13 38   2.1871  1.6322    44.7    25.8  19.3
...
2024 09 16    08 26 32.7 -08 44 50   1.7671  1.3323    48.4    34.4  18.0
...
2024 09 24    08 51 32.6 -10 38 21   1.5368  1.1580    48.9    40.8  17.1
...
2024 09 30    09 15 33.2 -12 23 05   1.3651  1.0183    48.0    47.0  16.3
2024 10 01    09 20 10.1 -12 42 19   1.3369  0.9941    47.7    48.2  16.1
2024 10 02    09 24 59.6 -13 02 04   1.3089  0.9696    47.4    49.4  16.0
...
2024 10 08    09 59 24.7 -15 09 55   1.1466  0.8154    44.0    58.3  14.9
...
2024 10 16    11 06 50.4 -18 00 59   0.9633  0.5835    34.6    75.9  13.1
...
2024 10 31    13 50 27.6 -07 10 53   1.3485  0.4116    10.3    25.5  12.3

(MPEC 2024-T22、CBET 5453、oaa-comet :6981, 6995)


スレッド表示 | 古いものから 前のトピック | 次のトピック | トップ

投稿するにはまず登録を
 
© 1999 Tsutomu Seki.